GOES 1 (SMS-C) 1 08366U 75100A 08284.24381968 -.00000036 +00000-0 +10000-3 0 07834 2 08366 014.4240 349.8159 0004934 232.7932 127.1803 01.00311782120443 GOES 2 1 10061U 77048A 08283.02777309 -.00000270 00000-0 10000-3 0 5721 2 10061 014.6068 358.2430 0018501 239.6992 120.1396 00.99400789 59300 GOES 3 1 10953U 78062A 08285.23335184 -.00000124 00000-0 10000-3 0 2673 2 10953 014.2722 002.0690 0001302 245.1063 114.8960 01.00276937 64174 GOES 6 1 14050U 83041A 08286.30075672 -.00000087 00000-0 10000-3 0 834 2 14050 013.0383 021.4431 0001895 178.1478 181.8600 01.00327301151327 GOES 7 1 17561U 87022A 08286.28980185 .00000076 00000-0 10000-3 0 6437 2 17561 011.6451 039.6655 0003934 140.8051 130.0039 01.00254536 62428 GOES 8 1 23051U 94022A 08285.84299950 -.00000139 +00000-0 +10000-3 0 05160 2 23051 005.1160 077.1817 0008751 154.9990 205.2607 00.98905079060268 GOES 9 1 23581U 95025A 08285.85363599 -.00000082 00000-0 10000-3 0 7848 2 23581 004.6803 073.6716 0000957 318.0188 042.1939 00.98799734 48974 GOES 10 1 24786U 97019A 08286.37483168 -.00000275 00000-0 10000-3 0 5981 2 24786 003.0075 077.7449 0003716 155.2861 223.4859 01.00265328 42025 GOES 11 1 26352U 00022A 08285.30456495 .00000091 00000-0 10000-3 0 143 2 26352 000.1939 261.1718 0006563 320.4978 133.0793 01.00280086 30904 GOES 12 1 26871U 01031A 08286.29798686 -.00000244 00000-0 10000-3 0 7621 2 26871 000.2829 087.3931 0002592 052.0102 274.4109 01.00268075 26527 GOES 13 1 29155U 06018A 08286.33886837 -.00000083 00000-0 10000-3 0 4987 2 29155 000.4630 083.8640 0002262 154.1950 160.2308 01.00272289 8776